Year,Month,Day,Hour,Minute,Value (Times are PST for temperature in C)
2021,01,17,00,00,-19.30
2021,01,17,00,01,-19.30
2021,01,17,00,02,-19.30
2021,01,17,00,03,-19.30
2021,01,17,00,04,-19.30
2021,01,17,00,05,-19.20
2021,01,17,00,06,-19.20
2021,01,17,00,07,-19.20
2021,01,17,00,08,-19.20
2021,01,17,00,09,-19.20
2021,01,17,00,10,-19.20
2021,01,17,00,11,-19.20
2021,01,17,00,12,-19.20
2021,01,17,00,13,-19.20
2021,01,17,00,14,-19.20
2021,01,17,00,15,-19.20
2021,01,17,00,16,-19.20
2021,01,17,00,17,-19.10
2021,01,17,00,18,-19.20
2021,01,17,00,19,-19.20
2021,01,17,00,20,-19.20
2021,01,17,00,21,-19.20
2021,01,17,00,22,-19.20
2021,01,17,00,23,-19.20
2021,01,17,00,24,-19.20
2021,01,17,00,25,-19.20
2021,01,17,00,26,-19.20
2021,01,17,00,27,-19.20
2021,01,17,00,28,-19.20
2021,01,17,00,29,-19.20
2021,01,17,00,30,-19.20
2021,01,17,00,31,-19.20
2021,01,17,00,32,-19.20
2021,01,17,00,33,-19.20
2021,01,17,00,34,-19.20
2021,01,17,00,35,-19.20
2021,01,17,00,36,-19.20
2021,01,17,00,37,-19.10
2021,01,17,00,38,-19.10
2021,01,17,00,39,-19.10
2021,01,17,00,40,-19.10
2021,01,17,00,41,-19.10
2021,01,17,00,42,-19.10
2021,01,17,00,43,-19.10
2021,01,17,00,44,-19.00
2021,01,17,00,45,-19.00
2021,01,17,00,46,-19.00
2021,01,17,00,47,-19.00
2021,01,17,00,48,-19.00
2021,01,17,00,49,-19.00
2021,01,17,00,50,-19.00
2021,01,17,00,51,-19.00
2021,01,17,00,52,-19.00
2021,01,17,00,53,-19.00
2021,01,17,00,54,-19.00
2021,01,17,00,55,-19.00
2021,01,17,00,56,-18.90
2021,01,17,00,57,-18.90
2021,01,17,00,58,-18.90
2021,01,17,00,59,-18.90
2021,01,17,01,00,-18.90
2021,01,17,01,01,-18.90
2021,01,17,01,02,-18.90
2021,01,17,01,03,-18.90
2021,01,17,01,04,-18.90
2021,01,17,01,05,-18.90
2021,01,17,01,06,-18.90
2021,01,17,01,07,-18.80
2021,01,17,01,08,-18.80
2021,01,17,01,09,-18.80
2021,01,17,01,10,-18.80
2021,01,17,01,11,-18.80
2021,01,17,01,12,-18.80
2021,01,17,01,13,-18.80
2021,01,17,01,14,-18.80
2021,01,17,01,15,-18.70
2021,01,17,01,16,-18.70
2021,01,17,01,17,-18.70
2021,01,17,01,18,-18.70
2021,01,17,01,19,-18.70
2021,01,17,01,20,-18.70
2021,01,17,01,21,-18.70
2021,01,17,01,22,-18.70
2021,01,17,01,23,-18.70
2021,01,17,01,24,-18.60
2021,01,17,01,25,-18.60
2021,01,17,01,26,-18.60
2021,01,17,01,27,-18.60
2021,01,17,01,28,-18.60
2021,01,17,01,29,-18.60
2021,01,17,01,30,-18.60
2021,01,17,01,31,-18.50
2021,01,17,01,32,-18.50
2021,01,17,01,33,-18.50
2021,01,17,01,34,-18.50
2021,01,17,01,35,-18.50
2021,01,17,01,36,-18.40
2021,01,17,01,37,-18.40
2021,01,17,01,38,-18.40
2021,01,17,01,39,-18.40
2021,01,17,01,40,-18.40
2021,01,17,01,41,-18.40
2021,01,17,01,42,-18.30
2021,01,17,01,43,-18.30
2021,01,17,01,44,-18.30
2021,01,17,01,45,-18.30
2021,01,17,01,46,-18.30
2021,01,17,01,47,-18.30
2021,01,17,01,48,-18.30
2021,01,17,01,49,-18.30
2021,01,17,01,50,-18.30
2021,01,17,01,51,-18.30
2021,01,17,01,52,-18.30
2021,01,17,01,53,-18.30
2021,01,17,01,54,-18.20
2021,01,17,01,55,-18.20
2021,01,17,01,56,-18.20
2021,01,17,01,57,-18.20
2021,01,17,01,58,-18.20
2021,01,17,01,59,-18.20
2021,01,17,02,00,-18.20
2021,01,17,02,01,-18.20
2021,01,17,02,02,-18.10
2021,01,17,02,03,-18.10
2021,01,17,02,04,-18.10
2021,01,17,02,05,-18.10
2021,01,17,02,06,-18.10
2021,01,17,02,07,-18.00
2021,01,17,02,08,-18.00
2021,01,17,02,09,-18.00
2021,01,17,02,10,-18.00
2021,01,17,02,11,-17.90
2021,01,17,02,12,-18.00
2021,01,17,02,13,-17.90
2021,01,17,02,14,-17.90
2021,01,17,02,15,-17.90
2021,01,17,02,16,-17.90
2021,01,17,02,17,-17.90
2021,01,17,02,18,-17.90
2021,01,17,02,19,-17.90
2021,01,17,02,20,-17.90
2021,01,17,02,21,-17.90
2021,01,17,02,22,-17.90
2021,01,17,02,23,-17.80
2021,01,17,02,24,-17.80
2021,01,17,02,25,-17.80
2021,01,17,02,26,-17.80
2021,01,17,02,27,-17.80
2021,01,17,02,28,-17.80
2021,01,17,02,29,-17.80
2021,01,17,02,30,-17.80
2021,01,17,02,31,-17.80
2021,01,17,02,32,-17.80
2021,01,17,02,33,-17.80
2021,01,17,02,34,-17.70
2021,01,17,02,35,-17.70
2021,01,17,02,36,-17.70
2021,01,17,02,37,-17.70
2021,01,17,02,38,-17.70
2021,01,17,02,39,-17.70
2021,01,17,02,40,-17.70
2021,01,17,02,41,-17.60
2021,01,17,02,42,-17.60
2021,01,17,02,43,-17.60
2021,01,17,02,44,-17.60
2021,01,17,02,45,-17.60
2021,01,17,02,46,-17.60
2021,01,17,02,47,-17.60
2021,01,17,02,48,-17.50
2021,01,17,02,49,-17.50
2021,01,17,02,50,-17.50
2021,01,17,02,51,-17.40
2021,01,17,02,52,-17.40
2021,01,17,02,53,-17.40
2021,01,17,02,54,-17.40
2021,01,17,02,55,-17.40
2021,01,17,02,56,-17.40
2021,01,17,02,57,-17.40
2021,01,17,02,58,-17.30
2021,01,17,02,59,-17.30
2021,01,17,03,00,-17.30
2021,01,17,03,01,-17.30
2021,01,17,03,02,-17.30
2021,01,17,03,03,-17.30
2021,01,17,03,04,-17.30
2021,01,17,03,05,-17.30
2021,01,17,03,06,-17.30
2021,01,17,03,07,-17.30
2021,01,17,03,08,-17.30
2021,01,17,03,09,-17.30
2021,01,17,03,10,-17.20
2021,01,17,03,11,-17.20
2021,01,17,03,12,-17.20
2021,01,17,03,13,-17.20
2021,01,17,03,14,-17.20
2021,01,17,03,15,-17.20
2021,01,17,03,16,-17.20
2021,01,17,03,17,-17.20
2021,01,17,03,18,-17.20
2021,01,17,03,19,-17.20
2021,01,17,03,20,-17.20
2021,01,17,03,21,-17.20
2021,01,17,03,22,-17.20
2021,01,17,03,23,-17.20
2021,01,17,03,24,-17.20
2021,01,17,03,25,-17.20
2021,01,17,03,26,-17.20
2021,01,17,03,27,-17.20
2021,01,17,03,28,-17.20
2021,01,17,03,29,-17.20
2021,01,17,03,30,-17.20
2021,01,17,03,31,-17.20
2021,01,17,03,32,-17.10
2021,01,17,03,33,-17.10
2021,01,17,03,34,-17.10
2021,01,17,03,35,-17.10
2021,01,17,03,36,-17.10
2021,01,17,03,37,-17.10
2021,01,17,03,38,-17.10
2021,01,17,03,39,-17.10
2021,01,17,03,40,-17.10
2021,01,17,03,41,-17.00
2021,01,17,03,42,-17.00
2021,01,17,03,43,-17.00
2021,01,17,03,44,-16.90
2021,01,17,03,45,-16.90
2021,01,17,03,46,-16.90
2021,01,17,03,47,-16.90
2021,01,17,03,48,-16.90
2021,01,17,03,49,-16.90
2021,01,17,03,50,-16.90
2021,01,17,03,51,-16.90
2021,01,17,03,52,-16.90
2021,01,17,03,53,-16.90
2021,01,17,03,54,-16.80
2021,01,17,03,55,-16.80
2021,01,17,03,56,-16.80
2021,01,17,03,57,-16.80
2021,01,17,03,58,-16.80
2021,01,17,03,59,-16.80
2021,01,17,04,00,-16.70
2021,01,17,04,01,-16.70
2021,01,17,04,02,-16.70
2021,01,17,04,03,-16.70
2021,01,17,04,04,-16.70
2021,01,17,04,05,-16.70
2021,01,17,04,06,-16.60
2021,01,17,04,07,-16.60
2021,01,17,04,08,-16.60
2021,01,17,04,09,-16.50
2021,01,17,04,10,-16.50
2021,01,17,04,11,-16.50
2021,01,17,04,12,-16.40
2021,01,17,04,13,-16.40
2021,01,17,04,14,-16.40
2021,01,17,04,15,-16.40
2021,01,17,04,16,-16.30
2021,01,17,04,17,-16.30
2021,01,17,04,18,-16.30
2021,01,17,04,19,-16.30
2021,01,17,04,20,-16.30
2021,01,17,04,21,-16.20
2021,01,17,04,22,-16.20
2021,01,17,04,23,-16.20
2021,01,17,04,24,-16.20
2021,01,17,04,25,-16.20
2021,01,17,04,26,-16.20
2021,01,17,04,27,-16.20
2021,01,17,04,28,-16.20
2021,01,17,04,29,-16.20
2021,01,17,04,30,-16.20
2021,01,17,04,31,-16.10
2021,01,17,04,32,-16.10
2021,01,17,04,33,-16.10
2021,01,17,04,34,-16.10
2021,01,17,04,35,-16.10
2021,01,17,04,36,-16.10
2021,01,17,04,37,-16.10
2021,01,17,04,38,-16.10
2021,01,17,04,39,-16.10
2021,01,17,04,40,-16.10
2021,01,17,04,41,-16.10
2021,01,17,04,42,-16.00
2021,01,17,04,43,-16.00
2021,01,17,04,44,-16.00
2021,01,17,04,45,-16.00
2021,01,17,04,46,-16.00
2021,01,17,04,47,-16.00
2021,01,17,04,48,-16.10
2021,01,17,04,49,-16.10
2021,01,17,04,50,-16.10
2021,01,17,04,51,-16.10
2021,01,17,04,52,-16.10
2021,01,17,04,53,-16.00
2021,01,17,04,54,-16.00
2021,01,17,04,55,-16.00
2021,01,17,04,56,-16.00
2021,01,17,04,57,-16.00
2021,01,17,04,58,-15.90
2021,01,17,04,59,-15.90
2021,01,17,05,00,-15.90
2021,01,17,05,01,-15.90
2021,01,17,05,02,-15.90
2021,01,17,05,03,-15.90
2021,01,17,05,04,-15.90
2021,01,17,05,05,-15.80
2021,01,17,05,06,-15.80
2021,01,17,05,07,-15.80
2021,01,17,05,08,-15.80
2021,01,17,05,09,-15.80
2021,01,17,05,10,-15.80
2021,01,17,05,11,-15.80
2021,01,17,05,12,-15.80
2021,01,17,05,13,-15.80
2021,01,17,05,14,-15.80
2021,01,17,05,15,-15.80
2021,01,17,05,16,-15.80
2021,01,17,05,17,-15.70
2021,01,17,05,18,-15.70
2021,01,17,05,19,-15.70
2021,01,17,05,20,-15.70
2021,01,17,05,21,-15.70
2021,01,17,05,22,-15.70
2021,01,17,05,23,-15.70
2021,01,17,05,24,-15.70
2021,01,17,05,25,-15.70
2021,01,17,05,26,-15.70
2021,01,17,05,27,-15.70
2021,01,17,05,28,-15.70
2021,01,17,05,29,-15.70
2021,01,17,05,30,-15.70
2021,01,17,05,31,-15.70
2021,01,17,05,32,-15.70
2021,01,17,05,33,-15.70
2021,01,17,05,34,-15.60
2021,01,17,05,35,-15.60
2021,01,17,05,36,-15.60
2021,01,17,05,37,-15.60
2021,01,17,05,38,-15.60
2021,01,17,05,39,-15.60
2021,01,17,05,40,-15.60
2021,01,17,05,41,-15.60
2021,01,17,05,42,-15.50
2021,01,17,05,43,-15.50
2021,01,17,05,44,-15.50
2021,01,17,05,45,-15.50
2021,01,17,05,46,-15.50
2021,01,17,05,47,-15.50
2021,01,17,05,48,-15.40
2021,01,17,05,49,-15.40
2021,01,17,05,50,-15.40
2021,01,17,05,51,-15.40
2021,01,17,05,52,-15.40
2021,01,17,05,53,-15.40
2021,01,17,05,54,-15.40
2021,01,17,05,55,-15.40
2021,01,17,05,56,-15.40
2021,01,17,05,57,-15.30
2021,01,17,05,58,-15.30
2021,01,17,05,59,-15.30
2021,01,17,06,00,-15.30
2021,01,17,06,01,-15.30
2021,01,17,06,02,-15.30
2021,01,17,06,03,-15.30
2021,01,17,06,04,-15.30
2021,01,17,06,05,-15.30
2021,01,17,06,06,-15.30
2021,01,17,06,07,-15.30
2021,01,17,06,08,-15.30
2021,01,17,06,09,-15.30
2021,01,17,06,10,-15.20
2021,01,17,06,11,-15.20
2021,01,17,06,12,-15.20
2021,01,17,06,13,-15.20
2021,01,17,06,14,-15.20
2021,01,17,06,15,-15.20
2021,01,17,06,16,-15.20
2021,01,17,06,17,-15.20
2021,01,17,06,18,-15.10
2021,01,17,06,19,-15.10
2021,01,17,06,20,-15.10
2021,01,17,06,21,-15.10
2021,01,17,06,22,-15.10
2021,01,17,06,23,-15.10
2021,01,17,06,24,-15.10
2021,01,17,06,25,-15.00
2021,01,17,06,26,-15.00
2021,01,17,06,27,-15.00
2021,01,17,06,28,-15.00
2021,01,17,06,29,-15.00
2021,01,17,06,30,-15.00
2021,01,17,06,31,-15.00
2021,01,17,06,32,-14.90
2021,01,17,06,33,-14.90
2021,01,17,06,34,-14.90
2021,01,17,06,35,-14.90
2021,01,17,06,36,-14.90
2021,01,17,06,37,-14.90
2021,01,17,06,38,-14.90
2021,01,17,06,39,-14.90
2021,01,17,06,40,-14.90
2021,01,17,06,41,-14.90
2021,01,17,06,42,-14.90
2021,01,17,06,43,-14.90
2021,01,17,06,44,-14.90
2021,01,17,06,45,-14.90
2021,01,17,06,46,-14.90
2021,01,17,06,47,-14.90
2021,01,17,06,48,-14.90
2021,01,17,06,49,-14.90
2021,01,17,06,50,-14.90
2021,01,17,06,51,-14.90
2021,01,17,06,52,-14.90
2021,01,17,06,53,-14.90
2021,01,17,06,54,-14.90
2021,01,17,06,55,-14.90
2021,01,17,06,56,-14.90
2021,01,17,06,57,-14.90
2021,01,17,06,58,-14.80
2021,01,17,06,59,-14.80
2021,01,17,07,00,-14.80
2021,01,17,07,01,-14.80
2021,01,17,07,02,-14.80
2021,01,17,07,03,-14.80
2021,01,17,07,04,-14.80
2021,01,17,07,05,-14.80
2021,01,17,07,06,-14.80
2021,01,17,07,07,-14.80
2021,01,17,07,08,-14.80
2021,01,17,07,09,-14.80
2021,01,17,07,10,-14.80
2021,01,17,07,11,-14.80
2021,01,17,07,12,-14.80
2021,01,17,07,13,-14.80
2021,01,17,07,14,-14.80
2021,01,17,07,15,-14.80
2021,01,17,07,16,-14.80
2021,01,17,07,17,-14.80
2021,01,17,07,18,-14.80
2021,01,17,07,19,-14.80
2021,01,17,07,20,-14.80
2021,01,17,07,21,-14.80
2021,01,17,07,22,-14.80
2021,01,17,07,23,-14.70
2021,01,17,07,24,-14.70
2021,01,17,07,25,-14.70
2021,01,17,07,26,-14.70
2021,01,17,07,27,-14.70
2021,01,17,07,28,-14.70
2021,01,17,07,29,-14.70
2021,01,17,07,30,-14.70
2021,01,17,07,31,-14.70
2021,01,17,07,32,-14.70
2021,01,17,07,33,-14.70
2021,01,17,07,34,-14.70
2021,01,17,07,35,-14.70
2021,01,17,07,36,-14.70
2021,01,17,07,37,-14.60
2021,01,17,07,38,-14.60
2021,01,17,07,39,-14.60
2021,01,17,07,40,-14.60
2021,01,17,07,41,-14.60
2021,01,17,07,42,-14.60
2021,01,17,07,43,-14.60
2021,01,17,07,44,-14.60
2021,01,17,07,45,-14.60
2021,01,17,07,46,-14.60
2021,01,17,07,47,-14.60
2021,01,17,07,48,-14.60
2021,01,17,07,49,-14.60
2021,01,17,07,50,-14.50
2021,01,17,07,51,-14.50
2021,01,17,07,52,-14.50
2021,01,17,07,53,-14.50
2021,01,17,07,54,-14.40
2021,01,17,07,55,-14.40
2021,01,17,07,56,-14.40
2021,01,17,07,57,-14.40
2021,01,17,07,58,-14.40
2021,01,17,07,59,-14.40
2021,01,17,08,00,-14.40
2021,01,17,08,01,-14.40
2021,01,17,08,02,-14.40
2021,01,17,08,03,-14.30
2021,01,17,08,04,-14.30
2021,01,17,08,05,-14.30
2021,01,17,08,06,-14.30
2021,01,17,08,07,-14.30
2021,01,17,08,08,-14.30
2021,01,17,08,09,-14.30
2021,01,17,08,10,-14.20
2021,01,17,08,11,-14.20
2021,01,17,08,12,-14.20
2021,01,17,08,13,-14.20
2021,01,17,08,14,-14.20
2021,01,17,08,15,-14.20
2021,01,17,08,16,-14.20
2021,01,17,08,17,-14.20
2021,01,17,08,18,-14.20
2021,01,17,08,19,-14.20
2021,01,17,08,20,-14.20
2021,01,17,08,21,-14.10
2021,01,17,08,22,-14.10
2021,01,17,08,23,-14.10
2021,01,17,08,24,-14.10
2021,01,17,08,25,-14.10
2021,01,17,08,26,-14.10
2021,01,17,08,27,-14.10
2021,01,17,08,28,-14.10
2021,01,17,08,29,-14.10
2021,01,17,08,30,-14.10
2021,01,17,08,31,-14.10
2021,01,17,08,32,-14.10
2021,01,17,08,33,-14.10
2021,01,17,08,34,-14.10
2021,01,17,08,35,-14.10
2021,01,17,08,36,-14.10
2021,01,17,08,37,-14.10
2021,01,17,08,38,-14.10
2021,01,17,08,39,-14.10
2021,01,17,08,40,-14.10
2021,01,17,08,41,-14.10
2021,01,17,08,42,-14.10
2021,01,17,08,43,-14.00
2021,01,17,08,44,-14.00
2021,01,17,08,45,-14.00
2021,01,17,08,46,-14.00
2021,01,17,08,47,-14.10
2021,01,17,08,48,-14.10
2021,01,17,08,49,-14.10
2021,01,17,08,50,-14.10
2021,01,17,08,51,-14.10
2021,01,17,08,52,-14.10
2021,01,17,08,53,-14.10
2021,01,17,08,54,-14.10
2021,01,17,08,55,-14.10
2021,01,17,08,56,-14.10
2021,01,17,08,57,-14.10
2021,01,17,08,58,-14.10
2021,01,17,08,59,-14.10
2021,01,17,09,00,-14.10
2021,01,17,09,01,-14.10
2021,01,17,09,02,-14.10
2021,01,17,09,03,-14.10
2021,01,17,09,04,-14.10
2021,01,17,09,05,-14.10
2021,01,17,09,06,-14.20
2021,01,17,09,07,-14.20
2021,01,17,09,08,-14.20
2021,01,17,09,09,-14.20
2021,01,17,09,10,-14.20
2021,01,17,09,11,-14.10
2021,01,17,09,12,-14.20
2021,01,17,09,13,-14.10
2021,01,17,09,14,-14.10
2021,01,17,09,15,-14.10
2021,01,17,09,16,-14.10
2021,01,17,09,17,-14.10
2021,01,17,09,18,-14.10
2021,01,17,09,19,-14.10
2021,01,17,09,20,-14.10
2021,01,17,09,21,-14.10
2021,01,17,09,22,-14.10
2021,01,17,09,23,-14.10
2021,01,17,09,24,-14.10
2021,01,17,09,25,-14.00
2021,01,17,09,26,-14.00
2021,01,17,09,27,-14.00
2021,01,17,09,28,-14.00
2021,01,17,09,29,-14.00
2021,01,17,09,30,-14.00
2021,01,17,09,31,-14.00
2021,01,17,09,32,-13.90
2021,01,17,09,33,-13.90
2021,01,17,09,34,-13.90
2021,01,17,09,35,-13.90
2021,01,17,09,36,-13.90
2021,01,17,09,37,-13.90
2021,01,17,09,38,-13.90
2021,01,17,09,39,-13.90
2021,01,17,09,40,-13.90
2021,01,17,09,41,-13.80
2021,01,17,09,42,-13.80
2021,01,17,09,43,-13.80
2021,01,17,09,44,-13.80
2021,01,17,09,45,-13.80
2021,01,17,09,46,-13.80
2021,01,17,09,47,-13.80
2021,01,17,09,48,-13.80
2021,01,17,09,49,-13.80
2021,01,17,09,50,-13.70
2021,01,17,09,51,-13.70
2021,01,17,09,52,-13.70
2021,01,17,09,53,-13.70
2021,01,17,09,54,-13.70
2021,01,17,09,55,-13.70
2021,01,17,09,56,-13.70
2021,01,17,09,57,-13.70
2021,01,17,09,58,-13.70
2021,01,17,09,59,-13.70
2021,01,17,10,00,-13.70
2021,01,17,10,01,-13.70
2021,01,17,10,02,-13.70
2021,01,17,10,03,-13.70
2021,01,17,10,04,-13.80
2021,01,17,10,05,-13.80
2021,01,17,10,06,-13.80
2021,01,17,10,07,-13.80
2021,01,17,10,08,-13.80
2021,01,17,10,09,-13.80
2021,01,17,10,10,-13.90
2021,01,17,10,11,-13.90
2021,01,17,10,12,-13.90
2021,01,17,10,13,-14.00
2021,01,17,10,14,-14.00
2021,01,17,10,15,-14.00
2021,01,17,10,16,-14.00
2021,01,17,10,17,-14.10
2021,01,17,10,18,-14.10
2021,01,17,10,19,-14.10
2021,01,17,10,20,-14.10
2021,01,17,10,21,-14.10
2021,01,17,10,22,-14.10
2021,01,17,10,23,-14.10
2021,01,17,10,24,-14.10
2021,01,17,10,25,-14.10
2021,01,17,10,26,-14.10
2021,01,17,10,27,-14.10
2021,01,17,10,28,-14.10
2021,01,17,10,29,-14.10
2021,01,17,10,30,-14.10
2021,01,17,10,31,-14.10
2021,01,17,10,32,-14.00
2021,01,17,10,33,-14.00
2021,01,17,10,34,-14.00
2021,01,17,10,35,-14.00
2021,01,17,10,36,-14.00
2021,01,17,10,37,-14.00
2021,01,17,10,38,-14.00
2021,01,17,10,39,-14.00
2021,01,17,10,40,-13.90
2021,01,17,10,41,-13.90
2021,01,17,10,42,-13.90
2021,01,17,10,43,-13.90
2021,01,17,10,44,-13.90
2021,01,17,10,45,-13.80
2021,01,17,10,46,-13.80
2021,01,17,10,47,-13.80
2021,01,17,10,48,-13.80
2021,01,17,10,49,-13.80
2021,01,17,10,50,-13.80
2021,01,17,10,51,-13.80
2021,01,17,10,52,-13.70
2021,01,17,10,53,-13.70
2021,01,17,10,54,-13.70
2021,01,17,10,55,-13.70
2021,01,17,10,56,-13.70
2021,01,17,10,57,-13.70
2021,01,17,10,58,-13.70
2021,01,17,10,59,-13.70
2021,01,17,11,00,-13.70
2021,01,17,11,01,-13.70
2021,01,17,11,02,-13.70
2021,01,17,11,03,-13.70
2021,01,17,11,04,-13.70
2021,01,17,11,05,-13.70
2021,01,17,11,06,-13.70
2021,01,17,11,07,-13.70
2021,01,17,11,08,-13.70
2021,01,17,11,09,-13.70
2021,01,17,11,10,-13.70
2021,01,17,11,11,-13.70
2021,01,17,11,12,-13.70
2021,01,17,11,13,-13.70
2021,01,17,11,14,-13.70
2021,01,17,11,15,-13.70
2021,01,17,11,16,-13.70
2021,01,17,11,17,-13.70
2021,01,17,11,18,-13.70
2021,01,17,11,19,-13.70
2021,01,17,11,20,-13.70
2021,01,17,11,21,-13.70
2021,01,17,11,22,-13.70
2021,01,17,11,23,-13.80
2021,01,17,11,24,-13.80
2021,01,17,11,25,-13.80
2021,01,17,11,26,-13.80
2021,01,17,11,27,-13.80
2021,01,17,11,28,-13.80
2021,01,17,11,29,-13.90
2021,01,17,11,30,-13.90
2021,01,17,11,31,-13.90
2021,01,17,11,32,-13.90
2021,01,17,11,33,-14.00
2021,01,17,11,34,-14.00
2021,01,17,11,35,-14.00
2021,01,17,11,36,-14.10
2021,01,17,11,37,-14.10
2021,01,17,11,38,-14.20
2021,01,17,11,39,-14.20
2021,01,17,11,40,-14.20
2021,01,17,11,41,-14.20
2021,01,17,11,42,-14.30
2021,01,17,11,43,-14.30
2021,01,17,11,44,-14.30
2021,01,17,11,45,-14.30
2021,01,17,11,46,-14.40
2021,01,17,11,47,-14.40
2021,01,17,11,48,-14.40
2021,01,17,11,49,-14.40
2021,01,17,11,50,-14.40
2021,01,17,11,51,-14.40
2021,01,17,11,52,-14.40
2021,01,17,11,53,-14.50
2021,01,17,11,54,-14.50
2021,01,17,11,55,-14.50
2021,01,17,11,56,-14.60
2021,01,17,11,57,-14.60
2021,01,17,11,58,-14.60
2021,01,17,11,59,-14.60
2021,01,17,12,00,-14.70
2021,01,17,12,01,-14.70
2021,01,17,12,02,-14.70
2021,01,17,12,03,-14.80
2021,01,17,12,04,-14.80
2021,01,17,12,05,-14.80
2021,01,17,12,06,-14.80
2021,01,17,12,07,-14.80
2021,01,17,12,08,-14.80
2021,01,17,12,09,-14.90
2021,01,17,12,10,-14.90
2021,01,17,12,11,-14.90
2021,01,17,12,12,-14.90
2021,01,17,12,13,-14.90
2021,01,17,12,14,-14.90
2021,01,17,12,15,-14.90
2021,01,17,12,16,-14.90
2021,01,17,12,17,-14.90
2021,01,17,12,18,-14.90
2021,01,17,12,19,-14.90
2021,01,17,12,20,-14.80
2021,01,17,12,21,-14.80
2021,01,17,12,22,-14.80
2021,01,17,12,23,-14.70
2021,01,17,12,24,-14.60
2021,01,17,12,25,-14.60
2021,01,17,12,26,-14.50
2021,01,17,12,27,-14.40
2021,01,17,12,28,-14.40
2021,01,17,12,29,-14.40
2021,01,17,12,30,-14.30
2021,01,17,12,31,-14.30
2021,01,17,12,32,-14.20
2021,01,17,12,33,-14.20
2021,01,17,12,34,-14.20
2021,01,17,12,35,-14.10
2021,01,17,12,36,-14.10
2021,01,17,12,37,-14.00
2021,01,17,12,38,-14.00
2021,01,17,12,39,-14.00
2021,01,17,12,40,-13.90
2021,01,17,12,41,-13.90
2021,01,17,12,42,-13.90
2021,01,17,12,43,-13.80
2021,01,17,12,44,-13.80
2021,01,17,12,45,-13.70
2021,01,17,12,46,-13.70
2021,01,17,12,47,-13.70
2021,01,17,12,48,-13.70
2021,01,17,12,49,-13.70
2021,01,17,12,50,-13.80
2021,01,17,12,51,-13.80
2021,01,17,12,52,-13.90
2021,01,17,12,53,-14.00
2021,01,17,12,54,-14.10
2021,01,17,12,55,-14.10
2021,01,17,12,56,-14.20
2021,01,17,12,57,-14.30
2021,01,17,12,58,-14.30
2021,01,17,12,59,-14.30
2021,01,17,13,00,-14.30
2021,01,17,13,01,-14.30
2021,01,17,13,02,-14.30
2021,01,17,13,03,-14.40
2021,01,17,13,04,-14.40
2021,01,17,13,05,-14.40
2021,01,17,13,06,-14.40
2021,01,17,13,07,-14.40
2021,01,17,13,08,-14.40
2021,01,17,13,09,-14.40
2021,01,17,13,10,-14.40
2021,01,17,13,11,-14.40
2021,01,17,13,12,-14.30
2021,01,17,13,13,-14.30
2021,01,17,13,14,-14.30
2021,01,17,13,15,-14.30
2021,01,17,13,16,-14.30
2021,01,17,13,17,-14.20
2021,01,17,13,18,-14.20
2021,01,17,13,19,-14.20
2021,01,17,13,20,-14.10
2021,01,17,13,21,-14.10
2021,01,17,13,22,-14.10
2021,01,17,13,23,-14.10
2021,01,17,13,24,-14.00
2021,01,17,13,25,-14.00
2021,01,17,13,26,-14.00
2021,01,17,13,27,-14.00
2021,01,17,13,28,-13.90
2021,01,17,13,29,-13.90
2021,01,17,13,30,-13.90
2021,01,17,13,31,-13.90
2021,01,17,13,32,-13.90
2021,01,17,13,33,-13.90
2021,01,17,13,34,-13.90
2021,01,17,13,35,-13.90
2021,01,17,13,36,-13.90
2021,01,17,13,37,-13.90
2021,01,17,13,38,-13.80
2021,01,17,13,39,-13.80
2021,01,17,13,40,-13.80
2021,01,17,13,41,-13.80
2021,01,17,13,42,-13.80
2021,01,17,13,43,-13.80
2021,01,17,13,44,-13.80
2021,01,17,13,45,-13.70
2021,01,17,13,46,-13.70
2021,01,17,13,47,-13.70
2021,01,17,13,48,-13.70
2021,01,17,13,49,-13.70
2021,01,17,13,50,-13.70
2021,01,17,13,51,-13.60
2021,01,17,13,52,-13.60
2021,01,17,13,53,-13.60
2021,01,17,13,54,-13.60
2021,01,17,13,55,-13.50
2021,01,17,13,56,-13.50
2021,01,17,13,57,-13.50
2021,01,17,13,58,-13.50
2021,01,17,13,59,-13.50
2021,01,17,14,00,-13.50
2021,01,17,14,01,-13.40
2021,01,17,14,02,-13.40
2021,01,17,14,03,-13.40
2021,01,17,14,04,-13.40
2021,01,17,14,05,-13.40
2021,01,17,14,06,-13.40
2021,01,17,14,07,-13.40
2021,01,17,14,08,-13.40
2021,01,17,14,09,-13.40
2021,01,17,14,10,-13.40
2021,01,17,14,11,-13.50
2021,01,17,14,12,-13.50
2021,01,17,14,13,-13.50
2021,01,17,14,14,-13.50
2021,01,17,14,15,-13.50
2021,01,17,14,16,-13.40
2021,01,17,14,17,-13.40
2021,01,17,14,18,-13.40
2021,01,17,14,19,-13.40
2021,01,17,14,20,-13.40
2021,01,17,14,21,-13.40
2021,01,17,14,22,-13.40
2021,01,17,14,23,-13.40
2021,01,17,14,24,-13.40
2021,01,17,14,25,-13.40
2021,01,17,14,26,-13.40
2021,01,17,14,27,-13.40
2021,01,17,14,28,-13.40
2021,01,17,14,29,-13.40
2021,01,17,14,30,-13.40
2021,01,17,14,31,-13.40
2021,01,17,14,32,-13.40
2021,01,17,14,33,-13.40
2021,01,17,14,34,-13.40
2021,01,17,14,35,-13.40
2021,01,17,14,36,-13.40
2021,01,17,14,37,-13.40
2021,01,17,14,38,-13.40
2021,01,17,14,39,-13.40
2021,01,17,14,40,-13.40
2021,01,17,14,41,-13.40
2021,01,17,14,42,-13.40
2021,01,17,14,43,-13.40
2021,01,17,14,44,-13.40
2021,01,17,14,45,-13.40
2021,01,17,14,46,-13.40
2021,01,17,14,47,-13.30
2021,01,17,14,48,-13.30
2021,01,17,14,49,-13.30
2021,01,17,14,50,-13.30
2021,01,17,14,51,-13.30
2021,01,17,14,52,-13.30
2021,01,17,14,53,-13.30
2021,01,17,14,54,-13.30
2021,01,17,14,55,-13.30
2021,01,17,14,56,-13.30
2021,01,17,14,57,-13.30
2021,01,17,14,58,-13.30
2021,01,17,14,59,-13.30
2021,01,17,15,00,-13.30
2021,01,17,15,01,-13.20
2021,01,17,15,02,-13.20
2021,01,17,15,03,-13.20
2021,01,17,15,04,-13.20
2021,01,17,15,05,-13.20
2021,01,17,15,06,-13.30
2021,01,17,15,07,-13.30
2021,01,17,15,08,-13.40
2021,01,17,15,09,-13.40
2021,01,17,15,10,-13.40
2021,01,17,15,11,-13.50
2021,01,17,15,12,-13.50
2021,01,17,15,13,-13.50
2021,01,17,15,14,-13.60
2021,01,17,15,15,-13.60
2021,01,17,15,16,-13.60
2021,01,17,15,17,-13.60
2021,01,17,15,18,-13.60
2021,01,17,15,19,-13.70
2021,01,17,15,20,-13.70
2021,01,17,15,21,-13.70
2021,01,17,15,22,-13.70
2021,01,17,15,23,-13.70
2021,01,17,15,24,-13.70
2021,01,17,15,25,-13.60
2021,01,17,15,26,-13.60
2021,01,17,15,27,-13.60
2021,01,17,15,28,-13.60
2021,01,17,15,29,-13.50
2021,01,17,15,30,-13.50
2021,01,17,15,31,-13.50
2021,01,17,15,32,-13.40
2021,01,17,15,33,-13.40
2021,01,17,15,34,-13.40
2021,01,17,15,35,-13.30
2021,01,17,15,36,-13.30
2021,01,17,15,37,-13.30
2021,01,17,15,38,-13.30
2021,01,17,15,39,-13.30
2021,01,17,15,40,-13.20
2021,01,17,15,41,-13.20
2021,01,17,15,42,-13.20
2021,01,17,15,43,-13.20
2021,01,17,15,44,-13.20
2021,01,17,15,45,-13.10
2021,01,17,15,46,-13.10
2021,01,17,15,47,-13.10
2021,01,17,15,48,-13.10
2021,01,17,15,49,-13.10
2021,01,17,15,50,-13.10
2021,01,17,15,51,-13.00
2021,01,17,15,52,-13.00
2021,01,17,15,53,-13.00
2021,01,17,15,54,-13.00
2021,01,17,15,55,-13.00
2021,01,17,15,56,-13.00
2021,01,17,15,57,-13.00
2021,01,17,15,58,-13.00
2021,01,17,15,59,-13.00
2021,01,17,16,00,-13.00
2021,01,17,16,01,-13.00
2021,01,17,16,02,-13.00
2021,01,17,16,03,-13.10
2021,01,17,16,04,-13.10
2021,01,17,16,05,-13.10
2021,01,17,16,06,-13.10
2021,01,17,16,07,-13.10
2021,01,17,16,08,-13.10
2021,01,17,16,09,-13.10
2021,01,17,16,10,-13.10
2021,01,17,16,11,-13.20
2021,01,17,16,12,-13.20
2021,01,17,16,13,-13.20
2021,01,17,16,14,-13.20
2021,01,17,16,15,-13.20
2021,01,17,16,16,-13.20
2021,01,17,16,17,-13.20
2021,01,17,16,18,-13.20
2021,01,17,16,19,-13.20
2021,01,17,16,20,-13.20
2021,01,17,16,21,-13.20
2021,01,17,16,22,-13.20
2021,01,17,16,23,-13.20
2021,01,17,16,24,-13.30
2021,01,17,16,25,-13.30
2021,01,17,16,26,-13.30
2021,01,17,16,27,-13.30
2021,01,17,16,28,-13.30
2021,01,17,16,29,-13.30
2021,01,17,16,30,-13.40
2021,01,17,16,31,-13.40
2021,01,17,16,32,-13.40
2021,01,17,16,33,-13.40
2021,01,17,16,34,-13.40
2021,01,17,16,35,-13.40
2021,01,17,16,36,-13.40